Talin, Estonija

11:45 AM EET on november 20, 2017 (GMT +0200)
Metsakasti | | Change Station

Viš 49 ft 59.50 °N, 24.90 °E | Updated 42 seconds ago

Pretezno oblacno
Pretezno oblacno
37.6 °F
Feels Like 34 °F
N
5.2
Veter Spremenljivo Veter od JZ
Gusts 8.3 mph

Danes
High -- | Low -- °F
--% Chance of Precip.
Yesterday
High -- | Low -- °F
Precip. -- v
Zračni tlak 29.56 v
Vidljivost 6.2 milje
Oblaki Few 1000 ft
Občutek zaradi vetra 34 °F
Rosišče 34 °F
Vlažnost 87%
Padavine 0.02 v
Snow Depth Not available.
8:26 AM 3:43 PM
Naraščajoči krajec, 3% visible
METAR EETN 200920Z 19007KT 9999 FEW010 02/01 Q1001 R08/290195 NOSIG
Zračni tlak 29.56 v
Vidljivost 6.2 milje
Oblaki Few 1000 ft
Občutek zaradi vetra 34 °F
Rosišče 34 °F
Vlažnost 87%
Padavine 0.02 v
Snow Depth Not available.
8:26 AM 3:43 PM
Naraščajoči krajec, 3% visible
METAR EETN 200920Z 19007KT 9999 FEW010 02/01 Q1001 R08/290195 NOSIG

Get Severe Weather Alerts

Thanks for signing up!

Be on the lookout for a verification email in your inbox.

You'll start receiving the daily forecast at 6 AM.

×

10-Day Weather Forecast

×

Almanac

Astronomija

Nov. 20, 2017 Rise Set
Actual Time
Civil Twilight
Nautical Twilight
Astronomical Twilight
Moon
Length Of Visible Light
Dolžina dneva
Tomorrow will be .
, % of the Moon is Illuminated

Današnji ekstremi

Country Highs Country Lows

Community

WunderPhotos

Category 6

Welcome to Category 6. This is the collective home for Weather Underground's featured writeups by Dr. Jeff Masters (right), Bob Henson (left), Chris Burt, and other regular contributors.

Nearby

Air Quality

  Air Quality AQ Index Pollutant
Not available.

Snow Depth

Station Depth Višina

Earthquake Activity

City Distance Mag. Time & Date
Minimum magnitude displayed is 2.5.

Coastal Water Temperatures

Mesto Temperatura

Stations

Nearby Weather Stations

Station Location Temp Občutek zaradi vetra Rosišče Vlažnost Veter Precip. Viš Obnovljeno Type